owner,sensor,date,latitude,longitude,air_pressure(mBar),qcFlag 
LUMCON,ioos:station:LUMCON:103:1,2009-03-01T00:00:00Z,30.1889,-90.1683,1016.8,11111222 
LUMCON,ioos:station:LUMCON:103:1,2009-03-01T03:00:00Z,30.1889,-90.1683,1019.6,11111222 
LUMCON,ioos:station:LUMCON:103:1,2009-03-01T04:00:00Z,30.1889,-90.1683,1020.3,11111222 
LUMCON,ioos:station:LUMCON:103:1,2009-03-01T08:00:00Z,30.1889,-90.1683,1021.7,11111222 
LUMCON,ioos:station:LUMCON:103:1,2009-03-01T09:00:00Z,30.1889,-90.1683,1021.7,11111222 
LUMCON,ioos:station:LUMCON:103:1,2009-03-01T15:00:00Z,30.1889,-90.1683,1025.1,11111222 
LUMCON,ioos:station:LUMCON:103:1,2009-03-02T00:00:00Z,30.1889,-90.1683,1023.8,11111222 
LUMCON,ioos:station:LUMCON:103:1,2009-03-02T02:00:00Z,30.1889,-90.1683,1025.0,11111222 
LUMCON,ioos:station:LUMCON:103:1,2009-03-02T03:00:00Z,30.1889,-90.1683,1025.6,11111222 
LUMCON,ioos:station:LUMCON:103:1,2009-03-02T04:00:00Z,30.1889,-90.1683,1026.1,11111222 
LUMCON,ioos:station:LUMCON:103:1,2009-03-02T16:00:00Z,30.1889,-90.1683,1026.7,11111222 
LUMCON,ioos:station:LUMCON:103:1,2009-03-02T20:00:00Z,30.1889,-90.1683,1024.1,1111122 
LUMCON,ioos:station:LUMCON:103:1,2009-03-02T23:00:00Z,30.1889,-90.1683,1022.9,1111122 
LUMCON,ioos:station:LUMCON:103:1,2009-03-03T00:00:00Z,30.1889,-90.1683,1025.4,1111122 
LUMCON,ioos:station:LUMCON:103:1,2009-03-03T01:00:00Z,30.1889,-90.1683,1023.8,1111122 
LUMCON,ioos:station:LUMCON:103:1,2009-03-03T02:00:00Z,30.1889,-90.1683,1024.7,1111122 
LUMCON,ioos:station:LUMCON:103:1,2009-03-03T03:00:00Z,30.1889,-90.1683,1025.2,1111122 
LUMCON,ioos:station:LUMCON:103:1,2009-03-03T05:00:00Z,30.1889,-90.1683,1025.2,1111122 
LUMCON,ioos:station:LUMCON:103:1,2009-03-03T06:00:00Z,30.1889,-90.1683,1025.3,1111122 
LUMCON,ioos:station:LUMCON:103:1,2009-03-03T07:00:00Z,30.1889,-90.1683,1025.1,11111222 
LUMCON,ioos:station:LUMCON:103:1,2009-03-03T08:00:00Z,30.1889,-90.1683,1025.7,1111122 
LUMCON,ioos:station:LUMCON:103:1,2009-03-03T09:00:00Z,30.1889,-90.1683,1026.2,1111122 
LUMCON,ioos:station:LUMCON:103:1,2009-03-03T11:00:00Z,30.1889,-90.1683,1026.6,1111122 
LUMCON,ioos:station:LUMCON:103:1,2009-03-03T12:00:00Z,30.1889,-90.1683,1027.4,1111122 
LUMCON,ioos:station:LUMCON:103:1,2009-03-03T13:00:00Z,30.1889,-90.1683,1027.3,11111222 
LUMCON,ioos:station:LUMCON:103:1,2009-03-03T14:00:00Z,30.1889,-90.1683,1028.2,1111122 
LUMCON,ioos:station:LUMCON:103:1,2009-03-03T15:00:00Z,30.1889,-90.1683,1028.7,1111122 
LUMCON,ioos:station:LUMCON:103:1,2009-03-03T16:00:00Z,30.1889,-90.1683,1028.8,1111122 
LUMCON,ioos:station:LUMCON:103:1,2009-03-03T18:00:00Z,30.1889,-90.1683,1028.5,1111122 
LUMCON,ioos:station:LUMCON:103:1,2009-03-03T19:00:00Z,30.1889,-90.1683,1027.7,1111122 
LUMCON,ioos:station:LUMCON:103:1,2009-03-03T20:00:00Z,30.1889,-90.1683,1026.9,1111122 
LUMCON,ioos:station:LUMCON:103:1,2009-03-03T22:00:00Z,30.1889,-90.1683,1026.4,1111122 
LUMCON,ioos:station:LUMCON:103:1,2009-03-03T23:00:00Z,30.1889,-90.1683,1026.0,1111122 
LUMCON,ioos:station:LUMCON:103:1,2009-03-04T00:00:00Z,30.1889,-90.1683,1026.6,1111122 
LUMCON,ioos:station:LUMCON:103:1,2009-03-04T01:00:00Z,30.1889,-90.1683,1025.9,1111122 
LUMCON,ioos:station:LUMCON:103:1,2009-03-04T02:00:00Z,30.1889,-90.1683,1026.1,1111122 
LUMCON,ioos:station:LUMCON:103:1,2009-03-04T04:00:00Z,30.1889,-90.1683,1026.3,1111122 
LUMCON,ioos:station:LUMCON:103:1,2009-03-04T05:00:00Z,30.1889,-90.1683,1026.3,1111122 
LUMCON,ioos:station:LUMCON:103:1,2009-03-04T06:00:00Z,30.1889,-90.1683,1026.1,1111122 
LUMCON,ioos:station:LUMCON:103:1,2009-03-04T07:00:00Z,30.1889,-90.1683,1025.1,11111222 
LUMCON,ioos:station:LUMCON:103:1,2009-03-04T08:00:00Z,30.1889,-90.1683,1025.7,1111122 
LUMCON,ioos:station:LUMCON:103:1,2009-03-04T09:00:00Z,30.1889,-90.1683,1025.4,1111122 
LUMCON,ioos:station:LUMCON:103:1,2009-03-04T11:00:00Z,30.1889,-90.1683,1025.7,1111122 
LUMCON,ioos:station:LUMCON:103:1,2009-03-04T12:00:00Z,30.1889,-90.1683,1026.0,1111122 
LUMCON,ioos:station:LUMCON:103:1,2009-03-04T13:00:00Z,30.1889,-90.1683,1026.3,1111122 
LUMCON,ioos:station:LUMCON:103:1,2009-03-04T14:00:00Z,30.1889,-90.1683,1026.7,1111122 
LUMCON,ioos:station:LUMCON:103:1,2009-03-04T15:00:00Z,30.1889,-90.1683,1027.3,1111122 
LUMCON,ioos:station:LUMCON:103:1,2009-03-04T16:00:00Z,30.1889,-90.1683,1027.8,1111122 
LUMCON,ioos:station:LUMCON:103:1,2009-03-04T17:00:00Z,30.1889,-90.1683,1027.9,1111122 
LUMCON,ioos:station:LUMCON:103:1,2009-03-04T18:00:00Z,30.1889,-90.1683,1027.7,1111122 
LUMCON,ioos:station:LUMCON:103:1,2009-03-04T19:00:00Z,30.1889,-90.1683,1026.9,1111122 
LUMCON,ioos:station:LUMCON:103:1,2009-03-04T20:00:00Z,30.1889,-90.1683,1025.9,1111122 
LUMCON,ioos:station:LUMCON:103:1,2009-03-04T21:00:00Z,30.1889,-90.1683,1025.3,1111122 
LUMCON,ioos:station:LUMCON:103:1,2009-03-04T22:00:00Z,30.1889,-90.1683,1024.9,1111122 
LUMCON,ioos:station:LUMCON:103:1,2009-03-04T23:00:00Z,30.1889,-90.1683,1024.5,1111122 
LUMCON,ioos:station:LUMCON:103:1,2009-03-05T00:00:00Z,30.1889,-90.1683,1026.1,1111122 
LUMCON,ioos:station:LUMCON:103:1,2009-03-05T01:00:00Z,30.1889,-90.1683,1024.7,1111122 
LUMCON,ioos:station:LUMCON:103:1,2009-03-05T02:00:00Z,30.1889,-90.1683,1024.8,1111122 
LUMCON,ioos:station:LUMCON:103:1,2009-03-05T03:00:00Z,30.1889,-90.1683,1025.1,1111122 
LUMCON,ioos:station:LUMCON:103:1,2009-03-05T04:00:00Z,30.1889,-90.1683,1025.4,1111122 
LUMCON,ioos:station:LUMCON:103:1,2009-03-05T05:00:00Z,30.1889,-90.1683,1025.3,1111122 
LUMCON,ioos:station:LUMCON:103:1,2009-03-05T06:00:00Z,30.1889,-90.1683,1025.0,1111122 
LUMCON,ioos:station:LUMCON:103:1,2009-03-05T07:00:00Z,30.1889,-90.1683,1024.5,1111122 
LUMCON,ioos:station:LUMCON:103:1,2009-03-05T08:00:00Z,30.1889,-90.1683,1024.5,1111122 
LUMCON,ioos:station:LUMCON:103:1,2009-03-05T09:00:00Z,30.1889,-90.1683,1024.3,1111122 
LUMCON,ioos:station:LUMCON:103:1,2009-03-05T10:00:00Z,30.1889,-90.1683,1024.1,1111122 
LUMCON,ioos:station:LUMCON:103:1,2009-03-05T11:00:00Z,30.1889,-90.1683,1024.4,1111122 
LUMCON,ioos:station:LUMCON:103:1,2009-03-05T12:00:00Z,30.1889,-90.1683,1024.7,1111122 
LUMCON,ioos:station:LUMCON:103:1,2009-03-05T13:00:00Z,30.1889,-90.1683,1025.2,1111122 
LUMCON,ioos:station:LUMCON:103:1,2009-03-05T14:00:00Z,30.1889,-90.1683,1025.9,1111122 
LUMCON,ioos:station:LUMCON:103:1,2009-03-05T15:00:00Z,30.1889,-90.1683,1026.5,1111122 
LUMCON,ioos:station:LUMCON:103:1,2009-03-05T16:00:00Z,30.1889,-90.1683,1027.2,1111122 
LUMCON,ioos:station:LUMCON:103:1,2009-03-05T17:00:00Z,30.1889,-90.1683,1027.4,1111122 
LUMCON,ioos:station:LUMCON:103:1,2009-03-05T18:00:00Z,30.1889,-90.1683,1027.0,1111122 
LUMCON,ioos:station:LUMCON:103:1,2009-03-05T19:00:00Z,30.1889,-90.1683,1026.4,1111122 
LUMCON,ioos:station:LUMCON:103:1,2009-03-05T20:00:00Z,30.1889,-90.1683,1025.5,1111122 
LUMCON,ioos:station:LUMCON:103:1,2009-03-05T21:00:00Z,30.1889,-90.1683,1025.0,1111122 
LUMCON,ioos:station:LUMCON:103:1,2009-03-05T22:00:00Z,30.1889,-90.1683,1024.7,1111122 
LUMCON,ioos:station:LUMCON:103:1,2009-03-05T23:00:00Z,30.1889,-90.1683,1024.4,1111122 
LUMCON,ioos:station:LUMCON:103:1,2009-03-06T00:00:00Z,30.1889,-90.1683,1025.2,1111122 
LUMCON,ioos:station:LUMCON:103:1,2009-03-06T01:00:00Z,30.1889,-90.1683,1024.3,1111122 
LUMCON,ioos:station:LUMCON:103:1,2009-03-06T02:00:00Z,30.1889,-90.1683,1024.7,1111122 
LUMCON,ioos:station:LUMCON:103:1,2009-03-06T03:00:00Z,30.1889,-90.1683,1025.0,1111122 
LUMCON,ioos:station:LUMCON:103:1,2009-03-06T04:00:00Z,30.1889,-90.1683,1025.5,1111122 
LUMCON,ioos:station:LUMCON:103:1,2009-03-06T05:00:00Z,30.1889,-90.1683,1025.5,1111122 
LUMCON,ioos:station:LUMCON:103:1,2009-03-06T06:00:00Z,30.1889,-90.1683,1025.3,1111122 
LUMCON,ioos:station:LUMCON:103:1,2009-03-06T07:00:00Z,30.1889,-90.1683,1025.2,1111122 
LUMCON,ioos:station:LUMCON:103:1,2009-03-06T08:00:00Z,30.1889,-90.1683,1025.0,1111122 
LUMCON,ioos:station:LUMCON:103:1,2009-03-06T10:00:00Z,30.1889,-90.1683,1023.9,1111122 
LUMCON,ioos:station:LUMCON:103:1,2009-03-06T11:00:00Z,30.1889,-90.1683,1023.9,1111122 
LUMCON,ioos:station:LUMCON:103:1,2009-03-06T12:00:00Z,30.1889,-90.1683,1024.2,1111122 
LUMCON,ioos:station:LUMCON:103:1,2009-03-06T13:00:00Z,30.1889,-90.1683,1024.5,1111122 
LUMCON,ioos:station:LUMCON:103:1,2009-03-06T14:00:00Z,30.1889,-90.1683,1025.0,1111122 
LUMCON,ioos:station:LUMCON:103:1,2009-03-06T17:00:00Z,30.1889,-90.1683,1026.2,1111122 
LUMCON,ioos:station:LUMCON:103:1,2009-03-06T18:00:00Z,30.1889,-90.1683,1025.9,1111122 
LUMCON,ioos:station:LUMCON:103:1,2009-03-06T21:00:00Z,30.1889,-90.1683,1023.8,1111122 
LUMCON,ioos:station:LUMCON:103:1,2009-03-06T23:00:00Z,30.1889,-90.1683,1023.2,1111122 
LUMCON,ioos:station:LUMCON:103:1,2009-03-07T00:00:00Z,30.1889,-90.1683,1024.7,1111122 
LUMCON,ioos:station:LUMCON:103:1,2009-03-07T01:00:00Z,30.1889,-90.1683,1023.0,1111122 
LUMCON,ioos:station:LUMCON:103:1,2009-03-07T02:00:00Z,30.1889,-90.1683,1023.4,1111122 
LUMCON,ioos:station:LUMCON:103:1,2009-03-07T16:00:00Z,30.1889,-90.1683,1023.9,1111122 
LUMCON,ioos:station:LUMCON:103:1,2009-03-07T17:00:00Z,30.1889,-90.1683,1023.5,1111122 
LUMCON,ioos:station:LUMCON:103:1,2009-03-07T18:00:00Z,30.1889,-90.1683,1023.2,1111122 
LUMCON,ioos:station:LUMCON:103:1,2009-03-07T19:00:00Z,30.1889,-90.1683,1021.8,11111222 
LUMCON,ioos:station:LUMCON:103:1,2009-03-07T20:00:00Z,30.1889,-90.1683,1021.5,1111122 
LUMCON,ioos:station:LUMCON:103:1,2009-03-07T21:00:00Z,30.1889,-90.1683,1020.7,11111222 
LUMCON,ioos:station:LUMCON:103:1,2009-03-07T22:00:00Z,30.1889,-90.1683,1020.2,1111122 
LUMCON,ioos:station:LUMCON:103:1,2009-03-07T23:00:00Z,30.1889,-90.1683,1020.0,1111122 
LUMCON,ioos:station:LUMCON:103:1,2009-03-08T03:00:00Z,30.1889,-90.1683,1020.4,1111122 
LUMCON,ioos:station:LUMCON:103:1,2009-03-08T13:00:00Z,30.1889,-90.1683,1019.6,1111122 
LUMCON,ioos:station:LUMCON:103:1,2009-03-08T14:00:00Z,30.1889,-90.1683,1020.0,1111122 
LUMCON,ioos:station:LUMCON:103:1,2009-03-08T19:00:00Z,30.1889,-90.1683,1020.2,1111122 
LUMCON,ioos:station:LUMCON:103:1,2009-03-08T20:00:00Z,30.1889,-90.1683,1019.4,1111122 
LUMCON,ioos:station:LUMCON:103:1,2009-03-08T21:00:00Z,30.1889,-90.1683,1018.8,1111122 
LUMCON,ioos:station:LUMCON:103:1,2009-03-08T22:00:00Z,30.1889,-90.1683,1018.4,1111122 
LUMCON,ioos:station:LUMCON:103:1,2009-03-08T23:00:00Z,30.1889,-90.1683,1018.2,1111122 
LUMCON,ioos:station:LUMCON:103:1,2009-03-09T00:00:00Z,30.1889,-90.1683,1019.4,1111122 
LUMCON,ioos:station:LUMCON:103:1,2009-03-09T01:00:00Z,30.1889,-90.1683,1018.5,1111122 
LUMCON,ioos:station:LUMCON:103:1,2009-03-09T02:00:00Z,30.1889,-90.1683,1018.6,1111122 
LUMCON,ioos:station:LUMCON:103:1,2009-03-09T04:00:00Z,30.1889,-90.1683,1019.7,1111122 
LUMCON,ioos:station:LUMCON:103:1,2009-03-09T05:00:00Z,30.1889,-90.1683,1019.8,1111122 
LUMCON,ioos:station:LUMCON:103:1,2009-03-09T06:00:00Z,30.1889,-90.1683,1019.9,1111122 
LUMCON,ioos:station:LUMCON:103:1,2009-03-09T07:00:00Z,30.1889,-90.1683,1019.7,1111122 
LUMCON,ioos:station:LUMCON:103:1,2009-03-09T08:00:00Z,30.1889,-90.1683,1019.7,1111122 
LUMCON,ioos:station:LUMCON:103:1,2009-03-09T09:00:00Z,30.1889,-90.1683,1019.2,1111122 
LUMCON,ioos:station:LUMCON:103:1,2009-03-09T11:00:00Z,30.1889,-90.1683,1019.5,1111122 
LUMCON,ioos:station:LUMCON:103:1,2009-03-09T12:00:00Z,30.1889,-90.1683,1020.1,1111122 
LUMCON,ioos:station:LUMCON:103:1,2009-03-09T13:00:00Z,30.1889,-90.1683,1020.9,11111222 
LUMCON,ioos:station:LUMCON:103:1,2009-03-09T14:00:00Z,30.1889,-90.1683,1021.4,1111122 
LUMCON,ioos:station:LUMCON:103:1,2009-03-09T15:00:00Z,30.1889,-90.1683,1022.0,11111222 
LUMCON,ioos:station:LUMCON:103:1,2009-03-09T16:00:00Z,30.1889,-90.1683,1022.4,1111122 
LUMCON,ioos:station:LUMCON:103:1,2009-03-09T17:00:00Z,30.1889,-90.1683,1022.5,1111122 
LUMCON,ioos:station:LUMCON:103:1,2009-03-09T18:00:00Z,30.1889,-90.1683,1022.1,1111122 
LUMCON,ioos:station:LUMCON:103:1,2009-03-09T19:00:00Z,30.1889,-90.1683,1021.4,1111122 
LUMCON,ioos:station:LUMCON:103:1,2009-03-09T21:00:00Z,30.1889,-90.1683,1019.9,1111122 
LUMCON,ioos:station:LUMCON:103:1,2009-03-09T22:00:00Z,30.1889,-90.1683,1019.6,1111122 
LUMCON,ioos:station:LUMCON:103:1,2009-03-09T23:00:00Z,30.1889,-90.1683,1019.2,1111122 
LUMCON,ioos:station:LUMCON:103:1,2009-03-10T00:00:00Z,30.1889,-90.1683,1020.2,1111122 
LUMCON,ioos:station:LUMCON:103:1,2009-03-10T02:00:00Z,30.1889,-90.1683,1019.8,1111122 
LUMCON,ioos:station:LUMCON:103:1,2009-03-10T03:00:00Z,30.1889,-90.1683,1020.0,11111222 
LUMCON,ioos:station:LUMCON:103:1,2009-03-10T04:00:00Z,30.1889,-90.1683,1020.1,1111122 
LUMCON,ioos:station:LUMCON:103:1,2009-03-10T05:00:00Z,30.1889,-90.1683,1019.9,1111122 
LUMCON,ioos:station:LUMCON:103:1,2009-03-10T07:00:00Z,30.1889,-90.1683,1019.1,1111122 
LUMCON,ioos:station:LUMCON:103:1,2009-03-10T08:00:00Z,30.1889,-90.1683,1018.3,11111222 
LUMCON,ioos:station:LUMCON:103:1,2009-03-10T09:00:00Z,30.1889,-90.1683,1018.3,1111122 
LUMCON,ioos:station:LUMCON:103:1,2009-03-10T10:00:00Z,30.1889,-90.1683,1017.7,1111122 
LUMCON,ioos:station:LUMCON:103:1,2009-03-10T12:00:00Z,30.1889,-90.1683,1018.1,1111122 
LUMCON,ioos:station:LUMCON:103:1,2009-03-10T13:00:00Z,30.1889,-90.1683,1018.4,1111122 
LUMCON,ioos:station:LUMCON:103:1,2009-03-10T14:00:00Z,30.1889,-90.1683,1018.8,1111122 
LUMCON,ioos:station:LUMCON:103:1,2009-03-10T15:00:00Z,30.1889,-90.1683,1019.4,1111122 
LUMCON,ioos:station:LUMCON:103:1,2009-03-10T16:00:00Z,30.1889,-90.1683,1020.2,1111122 
LUMCON,ioos:station:LUMCON:103:1,2009-03-10T18:00:00Z,30.1889,-90.1683,1020.2,1111122 
LUMCON,ioos:station:LUMCON:103:1,2009-03-10T19:00:00Z,30.1889,-90.1683,1019.5,1111122 
LUMCON,ioos:station:LUMCON:103:1,2009-03-10T20:00:00Z,30.1889,-90.1683,1019.0,1111122 
LUMCON,ioos:station:LUMCON:103:1,2009-03-10T22:00:00Z,30.1889,-90.1683,1017.9,1111122 
LUMCON,ioos:station:LUMCON:103:1,2009-03-10T23:00:00Z,30.1889,-90.1683,1018.0,11111222 
LUMCON,ioos:station:LUMCON:103:1,2009-03-11T00:00:00Z,30.1889,-90.1683,1019.0,1111122 
LUMCON,ioos:station:LUMCON:103:1,2009-03-11T01:00:00Z,30.1889,-90.1683,1018.4,11111222 
LUMCON,ioos:station:LUMCON:103:1,2009-03-11T02:00:00Z,30.1889,-90.1683,1018.7,1111122 
LUMCON,ioos:station:LUMCON:103:1,2009-03-11T03:00:00Z,30.1889,-90.1683,1019.4,1111122 
LUMCON,ioos:station:LUMCON:103:1,2009-03-11T04:00:00Z,30.1889,-90.1683,1019.9,1111122 
LUMCON,ioos:station:LUMCON:103:1,2009-03-11T05:00:00Z,30.1889,-90.1683,1019.9,1111122 
LUMCON,ioos:station:LUMCON:103:1,2009-03-11T06:00:00Z,30.1889,-90.1683,1019.8,1111122 
LUMCON,ioos:station:LUMCON:103:1,2009-03-11T07:00:00Z,30.1889,-90.1683,1019.6,1111122 
LUMCON,ioos:station:LUMCON:103:1,2009-03-11T08:00:00Z,30.1889,-90.1683,1019.4,1111122 
LUMCON,ioos:station:LUMCON:103:1,2009-03-11T09:00:00Z,30.1889,-90.1683,1019.3,1111122 
LUMCON,ioos:station:LUMCON:103:1,2009-03-11T10:00:00Z,30.1889,-90.1683,1019.4,1111122 
LUMCON,ioos:station:LUMCON:103:1,2009-03-11T11:00:00Z,30.1889,-90.1683,1019.3,1111122 
LUMCON,ioos:station:LUMCON:103:1,2009-03-11T12:00:00Z,30.1889,-90.1683,1019.9,1111122 
LUMCON,ioos:station:LUMCON:103:1,2009-03-11T13:00:00Z,30.1889,-90.1683,1020.5,1111122 
LUMCON,ioos:station:LUMCON:103:1,2009-03-11T14:00:00Z,30.1889,-90.1683,1021.5,1111122 
LUMCON,ioos:station:LUMCON:103:1,2009-03-11T16:00:00Z,30.1889,-90.1683,1022.0,1111122 
LUMCON,ioos:station:LUMCON:103:1,2009-03-11T17:00:00Z,30.1889,-90.1683,1022.1,1111122 
LUMCON,ioos:station:LUMCON:103:1,2009-03-11T18:00:00Z,30.1889,-90.1683,1021.8,1111122 
LUMCON,ioos:station:LUMCON:103:1,2009-03-11T19:00:00Z,30.1889,-90.1683,1021.3,1111122 
LUMCON,ioos:station:LUMCON:103:1,2009-03-11T20:00:00Z,30.1889,-90.1683,1020.2,1111122 
LUMCON,ioos:station:LUMCON:103:1,2009-03-11T21:00:00Z,30.1889,-90.1683,1019.5,1111122 
LUMCON,ioos:station:LUMCON:103:1,2009-03-11T22:00:00Z,30.1889,-90.1683,1019.0,1111122 
LUMCON,ioos:station:LUMCON:103:1,2009-03-11T23:00:00Z,30.1889,-90.1683,1018.6,1111122 
LUMCON,ioos:station:LUMCON:103:1,2009-03-12T00:00:00Z,30.1889,-90.1683,1020.0,1111122 
LUMCON,ioos:station:LUMCON:103:1,2009-03-12T01:00:00Z,30.1889,-90.1683,1019.3,1111122 
LUMCON,ioos:station:LUMCON:103:1,2009-03-12T02:00:00Z,30.1889,-90.1683,1020.1,1111122 
LUMCON,ioos:station:LUMCON:103:1,2009-03-12T03:00:00Z,30.1889,-90.1683,1020.5,1111122 
LUMCON,ioos:station:LUMCON:103:1,2009-03-12T04:00:00Z,30.1889,-90.1683,1021.0,1111122 
LUMCON,ioos:station:LUMCON:103:1,2009-03-12T05:00:00Z,30.1889,-90.1683,1021.1,1111122 
LUMCON,ioos:station:LUMCON:103:1,2009-03-12T06:00:00Z,30.1889,-90.1683,1020.9,1111122 
LUMCON,ioos:station:LUMCON:103:1,2009-03-12T07:00:00Z,30.1889,-90.1683,1020.8,1111122 
LUMCON,ioos:station:LUMCON:103:1,2009-03-12T08:00:00Z,30.1889,-90.1683,1020.7,1111122 
LUMCON,ioos:station:LUMCON:103:1,2009-03-12T09:00:00Z,30.1889,-90.1683,1020.4,1111122 
LUMCON,ioos:station:LUMCON:103:1,2009-03-12T10:00:00Z,30.1889,-90.1683,1019.9,1111122 
LUMCON,ioos:station:LUMCON:103:1,2009-03-12T11:00:00Z,30.1889,-90.1683,1020.5,1111122 
LUMCON,ioos:station:LUMCON:103:1,2009-03-12T12:00:00Z,30.1889,-90.1683,1020.9,1111122 
LUMCON,ioos:station:LUMCON:103:1,2009-03-12T13:00:00Z,30.1889,-90.1683,1021.2,1111122 
LUMCON,ioos:station:LUMCON:103:1,2009-03-12T14:00:00Z,30.1889,-90.1683,1021.7,1111122 
LUMCON,ioos:station:LUMCON:103:1,2009-03-12T15:00:00Z,30.1889,-90.1683,1023.3,1111122 
LUMCON,ioos:station:LUMCON:103:1,2009-03-12T16:00:00Z,30.1889,-90.1683,1023.2,1111122 
LUMCON,ioos:station:LUMCON:103:1,2009-03-12T17:00:00Z,30.1889,-90.1683,1022.7,1111122 
LUMCON,ioos:station:LUMCON:103:1,2009-03-12T18:00:00Z,30.1889,-90.1683,1022.2,1111122 
LUMCON,ioos:station:LUMCON:103:1,2009-03-12T19:00:00Z,30.1889,-90.1683,1021.8,1111122 
LUMCON,ioos:station:LUMCON:103:1,2009-03-12T20:00:00Z,30.1889,-90.1683,1020.8,1111122 
LUMCON,ioos:station:LUMCON:103:1,2009-03-12T21:00:00Z,30.1889,-90.1683,1020.2,1111122 
LUMCON,ioos:station:LUMCON:103:1,2009-03-13T21:00:00Z,30.1889,-90.1683,1014.8,1111122 
LUMCON,ioos:station:LUMCON:103:1,2009-03-13T22:00:00Z,30.1889,-90.1683,1014.5,1111122 
LUMCON,ioos:station:LUMCON:103:1,2009-03-13T23:00:00Z,30.1889,-90.1683,1014.4,1111122 
LUMCON,ioos:station:LUMCON:103:1,2009-03-14T00:00:00Z,30.1889,-90.1683,1017.9,1111122 
LUMCON,ioos:station:LUMCON:103:1,2009-03-14T01:00:00Z,30.1889,-90.1683,1014.3,1111122 
LUMCON,ioos:station:LUMCON:103:1,2009-03-14T02:00:00Z,30.1889,-90.1683,1014.2,1111122 
LUMCON,ioos:station:LUMCON:103:1,2009-03-14T03:00:00Z,30.1889,-90.1683,1014.5,1111122 
LUMCON,ioos:station:LUMCON:103:1,2009-03-14T04:00:00Z,30.1889,-90.1683,1014.7,1111122 
LUMCON,ioos:station:LUMCON:103:1,2009-03-14T05:00:00Z,30.1889,-90.1683,1014.3,11111222 
LUMCON,ioos:station:LUMCON:103:1,2009-03-14T06:00:00Z,30.1889,-90.1683,1013.8,1111122 
LUMCON,ioos:station:LUMCON:103:1,2009-03-14T07:00:00Z,30.1889,-90.1683,1013.3,1111122 
LUMCON,ioos:station:LUMCON:103:1,2009-03-14T08:00:00Z,30.1889,-90.1683,1012.8,1111122 
LUMCON,ioos:station:LUMCON:103:1,2009-03-14T10:00:00Z,30.1889,-90.1683,1012.2,1111122 
LUMCON,ioos:station:LUMCON:103:1,2009-03-14T11:00:00Z,30.1889,-90.1683,1012.3,1111122 
LUMCON,ioos:station:LUMCON:103:1,2009-03-14T12:00:00Z,30.1889,-90.1683,1012.4,1111122 
LUMCON,ioos:station:LUMCON:103:1,2009-03-14T13:00:00Z,30.1889,-90.1683,1012.9,1111122 
LUMCON,ioos:station:LUMCON:103:1,2009-03-14T14:00:00Z,30.1889,-90.1683,1013.7,1111122 
LUMCON,ioos:station:LUMCON:103:1,2009-03-14T15:00:00Z,30.1889,-90.1683,1014.7,11111222 
LUMCON,ioos:station:LUMCON:103:1,2009-03-14T17:00:00Z,30.1889,-90.1683,1014.6,1111122 
LUMCON,ioos:station:LUMCON:103:1,2009-03-14T18:00:00Z,30.1889,-90.1683,1014.5,1111122 
LUMCON,ioos:station:LUMCON:103:1,2009-03-14T19:00:00Z,30.1889,-90.1683,1014.0,1111122 
LUMCON,ioos:station:LUMCON:103:1,2009-03-14T22:00:00Z,30.1889,-90.1683,1013.2,1111122 
LUMCON,ioos:station:LUMCON:103:1,2009-03-14T23:00:00Z,30.1889,-90.1683,1013.3,1111122 
LUMCON,ioos:station:LUMCON:103:1,2009-03-15T00:00:00Z,30.1889,-90.1683,1013.6,1111122 
LUMCON,ioos:station:LUMCON:103:1,2009-03-15T02:00:00Z,30.1889,-90.1683,1014.6,1111122 
LUMCON,ioos:station:LUMCON:103:1,2009-03-15T03:00:00Z,30.1889,-90.1683,1015.4,1111122 
LUMCON,ioos:station:LUMCON:103:1,2009-03-15T04:00:00Z,30.1889,-90.1683,1015.8,1111122 
LUMCON,ioos:station:LUMCON:103:1,2009-03-15T05:00:00Z,30.1889,-90.1683,1015.7,1111122 
LUMCON,ioos:station:LUMCON:103:1,2009-03-15T06:00:00Z,30.1889,-90.1683,1015.6,1111122 
LUMCON,ioos:station:LUMCON:103:1,2009-03-15T07:00:00Z,30.1889,-90.1683,1014.9,11111222 
LUMCON,ioos:station:LUMCON:103:1,2009-03-15T08:00:00Z,30.1889,-90.1683,1015.0,1111122 
LUMCON,ioos:station:LUMCON:103:1,2009-03-15T09:00:00Z,30.1889,-90.1683,1014.6,1111122 
LUMCON,ioos:station:LUMCON:103:1,2009-03-15T10:00:00Z,30.1889,-90.1683,1014.4,1111122 
LUMCON,ioos:station:LUMCON:103:1,2009-03-15T12:00:00Z,30.1889,-90.1683,1015.7,1111122 
LUMCON,ioos:station:LUMCON:103:1,2009-03-15T15:00:00Z,30.1889,-90.1683,1016.9,1111122 
LUMCON,ioos:station:LUMCON:103:1,2009-03-15T16:00:00Z,30.1889,-90.1683,1017.5,1111122 
LUMCON,ioos:station:LUMCON:103:1,2009-03-15T17:00:00Z,30.1889,-90.1683,1018.1,1111122 
LUMCON,ioos:station:LUMCON:103:1,2009-03-15T19:00:00Z,30.1889,-90.1683,1017.6,1111122 
LUMCON,ioos:station:LUMCON:103:1,2009-03-15T21:00:00Z,30.1889,-90.1683,1016.3,1111122 
LUMCON,ioos:station:LUMCON:103:1,2009-03-15T22:00:00Z,30.1889,-90.1683,1016.2,1111122 
LUMCON,ioos:station:LUMCON:103:1,2009-03-15T23:00:00Z,30.1889,-90.1683,1016.3,1111122 
LUMCON,ioos:station:LUMCON:103:1,2009-03-16T00:00:00Z,30.1889,-90.1683,1017.0,11111222 
LUMCON,ioos:station:LUMCON:103:1,2009-03-16T01:00:00Z,30.1889,-90.1683,1017.1,1111122 
LUMCON,ioos:station:LUMCON:103:1,2009-03-16T02:00:00Z,30.1889,-90.1683,1017.3,1111122 
LUMCON,ioos:station:LUMCON:103:1,2009-03-16T03:00:00Z,30.1889,-90.1683,1018.2,11111222 
LUMCON,ioos:station:LUMCON:103:1,2009-03-16T04:00:00Z,30.1889,-90.1683,1018.9,1111122 
LUMCON,ioos:station:LUMCON:103:1,2009-03-16T05:00:00Z,30.1889,-90.1683,1019.1,11111222 
LUMCON,ioos:station:LUMCON:103:1,2009-03-16T06:00:00Z,30.1889,-90.1683,1018.5,1111122 
LUMCON,ioos:station:LUMCON:103:1,2009-03-16T07:00:00Z,30.1889,-90.1683,1018.3,1111122 
LUMCON,ioos:station:LUMCON:103:1,2009-03-16T08:00:00Z,30.1889,-90.1683,1018.3,1111122 
LUMCON,ioos:station:LUMCON:103:1,2009-03-16T09:00:00Z,30.1889,-90.1683,1018.3,1111122 
LUMCON,ioos:station:LUMCON:103:1,2009-03-16T10:00:00Z,30.1889,-90.1683,1018.0,11111222 
LUMCON,ioos:station:LUMCON:103:1,2009-03-16T11:00:00Z,30.1889,-90.1683,1018.4,1111122 
LUMCON,ioos:station:LUMCON:103:1,2009-03-16T12:00:00Z,30.1889,-90.1683,1019.1,11111222 
LUMCON,ioos:station:LUMCON:103:1,2009-03-16T13:00:00Z,30.1889,-90.1683,1019.7,1111122 
LUMCON,ioos:station:LUMCON:103:1,2009-03-16T14:00:00Z,30.1889,-90.1683,1020.8,1111122 
LUMCON,ioos:station:LUMCON:103:1,2009-03-16T15:00:00Z,30.1889,-90.1683,1020.8,1111122 
LUMCON,ioos:station:LUMCON:103:1,2009-03-16T16:00:00Z,30.1889,-90.1683,1020.9,1111122 
LUMCON,ioos:station:LUMCON:103:1,2009-03-16T18:00:00Z,30.1889,-90.1683,1020.9,1111122 
LUMCON,ioos:station:LUMCON:103:1,2009-03-16T19:00:00Z,30.1889,-90.1683,1021.2,1111122 
LUMCON,ioos:station:LUMCON:103:1,2009-03-16T20:00:00Z,30.1889,-90.1683,1020.7,11111222 
LUMCON,ioos:station:LUMCON:103:1,2009-03-16T21:00:00Z,30.1889,-90.1683,1020.7,1111122 
LUMCON,ioos:station:LUMCON:103:1,2009-03-16T23:00:00Z,30.1889,-90.1683,1020.5,1111122 
LUMCON,ioos:station:LUMCON:103:1,2009-03-17T01:00:00Z,30.1889,-90.1683,1021.2,1111122 
LUMCON,ioos:station:LUMCON:103:1,2009-03-17T02:00:00Z,30.1889,-90.1683,1021.4,1111122 
LUMCON,ioos:station:LUMCON:103:1,2009-03-17T03:00:00Z,30.1889,-90.1683,1021.8,1111122 
LUMCON,ioos:station:LUMCON:103:1,2009-03-17T04:00:00Z,30.1889,-90.1683,1022.1,11111222 
LUMCON,ioos:station:LUMCON:103:1,2009-03-17T05:00:00Z,30.1889,-90.1683,1022.3,1111122 
LUMCON,ioos:station:LUMCON:103:1,2009-03-17T06:00:00Z,30.1889,-90.1683,1022.1,11111222 
LUMCON,ioos:station:LUMCON:103:1,2009-03-17T07:00:00Z,30.1889,-90.1683,1022.0,1111122 
LUMCON,ioos:station:LUMCON:103:1,2009-03-17T08:00:00Z,30.1889,-90.1683,1021.8,1111122 
LUMCON,ioos:station:LUMCON:103:1,2009-03-17T09:00:00Z,30.1889,-90.1683,1021.5,1111122 
LUMCON,ioos:station:LUMCON:103:1,2009-03-17T10:00:00Z,30.1889,-90.1683,1021.3,1111122 